EHI
8 9 12 17 22 28 33 36 33 25 19 16 11 6 4 3 3 3 3 3 2 3 3 2 3 3 3 3 3 3 2 1 0 1 2 3 1 0 1 2 3 3 3
14 12 15 20 24 28 31 33 29 23 18 15 10 6 3 3 3 3 3 3 3 3 3 3 3 3 3 3 3 3 3 1 0 1 2 2 1 1 1 3 3 3 3
19 15 17 23 27 29 30 29 25 20 16 13 9 5 3 3 3 3 3 3 3 3 3 3 3 3 3 3 3 3 3 2 1 1 1 1 1 1 2 3 3 3 3
20 16 16 24 28 30 30 27 23 18 15 12 8 5 3 3 3 3 3 3 3 3 3 3 3 3 2 2 3 3 3 3 2 1 0 0 0 1 3 3 3 3 3
20 16 18 25 29 30 29 26 22 17 14 12 9 6 4 3 3 3 3 3 3 3 3 3 3 3 3 3 3 3 3 3 2 1 0 0 1 2 3 3 3 3 3
17 16 20 27 30 29 27 24 19 15 13 12 9 6 4 3 3 3 3 3 3 3 3 3 3 3 3 3 3 3 3 3 1 0 0 0 1 2 3 3 3 3 3
16 16 21 29 31 28 25 22 17 13 10 9 7 5 4 3 3 3 3 3 3 3 3 3 3 3 3 3 3 3 3 2 1 0 1 1 1 3 3 3 3 3 3
17 18 22 27 29 26 22 18 14 11 8 6 5 4 3 3 3 3 3 3 3 3 3 3 3 3 3 3 3 3 3 3 1 1 2 2 3 3 3 3 3 3 3
19 20 23 23 21 19 16 12 10 9 7 6 4 3 3 3 3 3 3 3 3 3 3 3 3 3 3 3 3 3 3 3 3 3 3 3 3 3 3 3 3 3 3
18 19 21 20 15 11 9 8 8 8 7 6 4 3 3 3 3 3 3 3 3 3 3 3 3 3 3 3 3 3 3 3 3 3 3 3 3 3 3 3 3 3 3
16 15 16 17 14 9 6 6 7 7 7 6 4 3 3 3 3 3 3 3 3 3 3 3 3 3 3 3 3 3 3 3 3 3 3 3 3 3 3 3 3 3 3
15 12 10 13 13 10 8 8 6 4 5 4 4 3 3 3 3 3 3 3 3 3 2 2 2 2 2 2 3 3 3 3 3 3 3 3 3 3 3 3 3 3 3
11 9 7 8 10 10 11 10 6 3 3 3 3 2 1 1 2 2 2 2 2 1 1 1 1 1 1 1 1 3 3 3 3 3 3 3 3 3 3 3 3 3 3
9 8 7 7 8 10 11 10 8 5 2 1 1 1 0 0 1 1 1 1 1 0 0 0 0 0 0 0 1 3 3 3 3 3 3 3 3 3 3 3 3 3 3
10 9 8 7 8 10 11 10 8 5 2 0 0 0 0 0 0 0 0 0 0 0 0 0 0 0 0 1 2 3 3 3 3 4 4 3 3 3 3 3 3 3 3
11 10 8 8 8 9 9 7 6 4 2 0 0 0 0 0 0 0 0 0 0 0 0 0 0 0 0 1 2 3 3 3 4 4 4 4 3 3 3 3 3 3 3
9 8 8 8 8 7 6 4 4 3 2 0 0 0 0 0 0 0 0 0 0 0 0 0 0 0 0 0 1 2 3 3 3 4 4 3 3 3 3 3 3 3 3
7 8 9 9 8 6 4 2 2 2 1 0 0 0 0 0 0 0 0 0 0 0 0 0 0 0 0 0 0 1 1 2 3 3 3 3 3 3 3 3 3 3 3
6 6 8 9 8 6 3 1 1 1 0 0 0 0 0 0 0 0 0 0 0 0 0 0 0 0 0 0 0 0 0 1 2 3 3 3 3 3 3 3 3 3 3
4 4 5 7 7 5 3 1 0 0 0 0 1 1 0 0 0 0 0 0 0 0 0 0 0 0 0 0 0 0 0 0 1 1 2 3 3 3 3 3 3 3 3
4 3 4 5 6 5 3 2 0 0 0 0 1 1 0 0 0 0 0 0 0 0 0 0 0 0 0 0 0 0 0 0 0 0 1 2 3 3 3 3 3 3 3
6 5 4 4 5 4 2 1 1 1 0 0 0 0 0 0 0 0 0 0 0 0 0 0 0 0 0 0 0 0 0 0 0 0 0 1 1 2 3 3 3 3 3
6 5 4 3 3 2 1 1 2 1 0 0 0 0 0 0 0 0 0 0 0 0 0 0 0 0 0 0 0 0 0 0 0 0 0 0 0 1 1 2 3 3 3
5 4 3 2 1 0 0 1 1 1 0 0 0 0 0 0 0 0 0 0 0 0 0 0 0 0 0 0 0 0 0 0 0 0 0 0 0 0 0 1 2 3 3
3 3 2 1 0 0 0 0 0 0 0 0 0 0 0 0 0 0 0 0 0 0 0 0 0 0 0 0 0 0 0 0 0 0 0 0 0 0 0 0 1 2 1
3 3 2 1 0 0 0 0 0 0 0 0 0 0 0 0 0 1 1 1 0 0 0 0 0 0 0 0 0 0 0 0 0 0 0 0 0 0 0 0 0 1 0
Wind_Speed
7 8 15 15 16 16 16 16 16 16 17 17 16 16 15 15 14 14 13 12 12 12 12 12 12 12 13 13 13 13 13 13 13 13 13 14 14 15 15 16 15 12 17
10 10 17 16 16 16 16 16 16 16 16 16 15 15 15 14 14 13 13 12 12 12 12 12 12 12 12 13 13 13 13 13 13 13 13 13 14 14 14 15 14 11 16
13 10 14 17 17 16 16 15 15 15 15 15 15 14 14 14 13 13 13 12 12 12 13 12 12 12 12 12 12 12 12 12 13 13 12 8 10 13 14 15 15 15 15
12 9 12 17 17 16 16 15 15 15 15 14 14 13 13 13 13 12 12 12 12 12 12 13 12 12 12 12 12 12 12 12 12 12 7 7 7 12 13 14 14 14 14
10 8 12 19 17 16 16 15 14 14 14 14 13 13 13 12 12 12 11 11 12 12 12 12 12 12 12 11 11 11 11 12 12 9 6 6 6 11 13 14 14 14 14
9 8 11 18 17 16 15 15 14 14 14 13 13 12 12 12 11 11 11 11 11 11 11 11 11 11 11 11 10 10 11 11 10 7 6 6 6 11 13 13 14 13 13
9 7 9 17 17 16 15 14 14 14 13 13 12 12 11 11 11 10 10 10 10 10 11 10 10 10 10 9 9 9 10 11 7 6 6 5 6 11 12 13 13 13 13
9 7 8 16 16 15 14 14 13 13 13 12 11 11 11 10 10 9 9 10 10 9 10 10 9 9 9 8 8 8 10 10 8 7 6 5 8 10 12 12 12 12 12
8 7 6 7 10 14 14 13 12 12 11 11 11 10 10 10 9 8 8 8 9 9 9 8 8 8 8 7 7 8 9 10 7 5 6 4 8 11 12 12 12 11 11
6 6 5 5 5 6 7 12 12 12 11 11 11 10 9 9 8 8 7 7 8 8 7 7 7 7 6 6 5 6 8 9 6 5 4 5 10 11 12 12 11 11 11
6 4 5 5 5 5 5 8 9 10 10 9 8 9 7 3 3 4 5 6 6 6 6 6 5 5 5 4 5 5 6 3 5 4 4 7 10 11 11 11 11 11 11
7 5 4 5 5 5 5 4 3 3 4 4 3 4 3 3 2 3 3 5 5 5 5 4 4 4 4 2 3 4 2 4 4 3 4 9 10 11 11 11 11 11 11
7 6 4 5 5 5 3 4 2 2 3 3 3 3 3 2 2 2 1 1 1 2 2 2 3 2 2 1 1 2 3 3 2 3 4 10 10 10 11 11 10 10 10
8 6 5 5 5 4 4 4 3 3 2 2 2 3 3 2 2 1 1 1 2 1 1 2 1 2 2 1 2 2 2 2 2 2 4 9 9 10 11 11 10 10 10
8 7 6 5 5 5 4 4 4 3 3 3 2 2 3 2 2 2 1 1 1 1 1 1 2 2 2 1 1 2 2 3 3 3 2 8 9 10 10 11 11 11 10
8 7 6 6 5 5 4 4 3 3 3 3 2 2 3 2 2 2 2 1 1 1 1 2 2 2 1 1 1 1 2 2 2 3 3 4 8 9 10 11 11 11 11
8 6 6 6 5 6 5 4 3 3 3 3 2 3 3 3 3 3 2 1 1 1 2 2 2 2 1 1 1 1 1 1 2 2 2 2 3 7 9 10 11 11 11
6 6 6 6 6 6 5 4 3 3 3 3 2 2 3 4 4 3 2 2 1 2 2 2 2 2 1 1 1 1 1 1 1 1 1 2 2 2 5 9 9 10 11
6 6 6 6 6 6 5 4 4 3 3 3 3 3 3 4 4 3 3 2 2 2 2 2 2 1 1 1 1 1 2 1 1 0 1 2 2 2 2 4 6 8 10
5 5 5 5 6 6 4 4 3 4 3 3 3 3 4 3 4 4 3 3 3 2 2 2 2 2 1 1 2 3 3 2 1 1 0 1 1 2 2 2 2 3 6
5 5 5 6 6 6 4 4 4 3 3 3 2 3 4 4 4 4 3 3 3 2 2 3 2 3 2 1 2 2 3 3 2 2 1 1 1 1 1 2 1 1 1
7 6 6 7 7 6 4 3 3 4 3 2 2 3 3 4 4 4 4 3 3 3 3 2 2 2 2 2 2 2 2 2 3 2 2 1 1 1 0 1 1 2 1
7 7 7 7 7 6 5 4 4 4 3 2 2 2 2 3 4 4 4 3 3 3 2 2 2 3 2 2 2 2 3 2 1 2 2 3 2 2 2 1 0 1 2
7 6 6 6 7 6 7 7 7 5 4 3 2 2 3 3 4 4 4 4 3 2 3 2 2 2 3 2 2 2 2 2 2 1 2 2 3 3 3 2 2 1 0
7 7 6 7 6 6 6 7 7 5 4 3 3 4 3 3 3 4 4 4 4 3 3 3 3 3 2 2 2 1 2 2 2 2 1 2 2 2 2 2 2 2 1
7 7 7 7 6 6 7 7 7 8 7 6 5 4 3 2 2 3 4 4 3 3 3 3 3 4 3 3 2 2 2 2 1 2 2 1 1 2 3 2 2 2 1
Wind_Direction
156 159 152 143 136 132 128 124 122 122 121 121 121 121 120 118 116 115 115 114 112 111 110 111 110 110 110 110 110 110 111 112 112 113 113 113 114 114 114 113 112 111 113
147 155 152 146 141 137 132 128 126 125 124 124 124 123 121 119 117 116 115 114 113 112 110 110 110 110 110 111 111 111 112 114 115 116 114 115 116 117 117 116 115 117 117
143 151 151 148 145 140 135 133 130 129 128 127 126 125 123 122 120 119 117 115 114 113 112 111 110 110 110 110 110 112 112 113 115 114 111 108 116 119 121 120 119 119 119
144 147 150 149 146 143 140 138 135 132 130 129 128 127 126 125 123 119 117 115 114 114 113 113 113 112 111 110 112 114 115 116 116 112 104 112 119 124 123 121 122 122 120
140 144 155 150 149 145 144 143 140 136 134 133 131 129 127 126 124 122 119 116 115 115 113 112 112 111 111 111 113 116 117 118 114 106 103 104 112 127 125 125 125 123 122
139 146 157 151 150 148 147 147 144 141 139 137 135 133 131 129 127 124 123 120 116 115 114 112 112 112 112 112 114 117 118 118 109 105 107 111 119 129 128 127 126 125 124
140 146 155 153 152 151 150 149 148 146 144 142 141 138 135 133 130 127 125 121 118 117 116 114 111 110 110 109 112 118 121 124 115 112 112 115 125 129 130 129 128 127 125
143 144 152 156 154 153 153 152 150 149 149 148 145 142 140 136 133 131 129 125 122 119 117 116 113 111 109 108 110 118 126 131 128 126 121 125 134 131 132 131 130 130 129
140 138 142 150 154 157 157 157 155 153 152 152 150 146 143 140 138 137 135 132 128 125 123 121 118 114 110 108 112 123 132 135 128 132 137 135 142 140 138 136 136 135 133
131 130 128 132 135 145 155 161 160 159 157 156 154 152 152 150 147 144 137 140 136 133 130 126 121 117 112 110 111 125 133 129 134 136 133 150 152 149 146 145 144 142 141
140 127 127 128 129 131 144 164 161 161 161 155 155 159 147 119 121 135 149 152 147 142 138 131 124 117 107 100 106 117 121 125 141 143 146 162 162 159 154 152 151 149 147
156 147 135 137 135 140 155 139 129 130 131 118 113 121 110 110 120 136 165 164 157 153 147 139 126 102 88 73 84 104 114 140 147 156 168 172 170 167 163 160 158 157 155
159 156 151 148 143 144 134 127 113 106 107 107 114 117 113 105 93 90 80 109 102 116 88 85 79 75 81 88 89 107 131 143 157 167 181 182 177 176 173 169 167 165 164
156 159 157 154 146 144 133 129 124 121 120 120 115 119 122 122 115 104 88 80 78 81 96 82 81 78 78 87 122 136 148 158 166 168 189 189 185 184 181 179 177 174 172
161 164 162 154 151 145 135 138 135 135 137 133 124 131 142 146 145 131 119 101 96 99 112 109 106 100 85 79 122 147 163 171 174 176 189 196 191 191 190 188 187 183 181
167 164 156 151 149 139 135 134 136 138 134 129 139 152 150 147 143 137 131 122 105 108 124 119 119 109 90 84 96 133 154 160 171 178 186 202 201 198 200 199 196 194 191
167 160 154 152 144 142 139 143 138 138 134 131 137 145 144 139 136 132 129 120 108 109 110 99 91 87 92 78 62 59 107 139 156 172 178 193 207 210 209 211 207 203 200
160 156 156 159 150 148 144 141 136 137 132 126 123 122 125 126 126 122 120 119 115 104 102 107 93 84 70 67 56 38 45 83 113 171 180 195 206 216 220 221 218 211 209
163 156 153 146 148 143 133 127 122 119 116 116 118 117 115 115 118 115 113 115 114 108 107 123 90 99 101 77 58 50 40 44 54 236 201 205 214 226 230 242 227 217 217
157 153 150 141 139 131 120 115 107 102 100 99 106 115 116 115 115 110 107 106 108 107 99 102 102 81 86 90 66 49 33 27 34 18 311 233 230 238 229 238 236 232 226
155 154 159 151 146 140 135 134 130 128 117 104 111 113 116 119 117 112 110 100 105 112 117 120 113 92 62 60 79 46 27 33 45 20 2 360 319 282 238 224 214 216 235
167 165 160 157 155 153 145 136 128 122 112 103 99 100 113 120 120 120 117 111 106 104 96 98 110 105 63 49 111 103 51 17 17 25 20 27 10 355 283 212 196 210 225
172 172 166 162 155 153 142 124 110 92 85 88 93 95 100 116 115 116 122 114 105 102 106 95 108 122 120 61 56 134 141 181 329 1 17 27 22 23 7 357 287 227 219
176 163 152 154 150 152 149 149 149 145 143 151 139 121 104 107 122 126 123 116 108 100 102 95 90 108 126 121 69 52 88 136 138 75 357 10 22 30 14 7 9 14 273
163 154 151 147 148 152 154 153 147 138 128 119 114 115 106 91 104 122 121 117 112 104 101 93 88 89 101 125 125 110 83 69 75 125 82 357 11 11 15 12 11 21 23
153 152 149 147 149 152 154 152 150 146 141 137 136 135 123 104 91 106 114 115 118 115 112 107 101 99 96 101 100 104 123 119 118 117 122 53 8 346 353 5 18 11 10